Location: Edinburgh
(55.9500°N, 3.1600°W)
Time: 12:47:00
(UTC+01:00)

Envisat - Pass Details

Date: 19 February 2019
Orbit: 764 x 766 km, 98.1° (Epoch: 19 October)

Event Time Altitude Azimuth Distance (km) Brightness Sun altitude
Rises 17:51:16 0° 143° (SE) 3,225 6.0 -4.4°
Reaches altitude 10° 17:53:37 10° 138° (SE) 2,302 5.2 -4.7°
Maximum altitude 17:58:29 48° 65° (ENE) 996 3.2 -5.4°
Drops below altitude 10° 18:03:22 10° 352° (N) 2,316 5.5 -6.1°
Sets 18:05:45 0° 347° (NNW) 3,247 6.3 -6.4°
